This demonstration page uses our WeatherBlox Daily Observations layout. Learn more.

Left ArrowRight Arrow

Hourly Observations for January 31, 2020

Temp ( °F °C ) Dew Point ( °F °C ) Humidity (%) Winds ( mph kmh ) Pressure ( in mb ) Visibility ( mi km ) Precip ( " mm )
12:53 am 00:53 Clear 39 3.9 35 1.7 86 86 Calm 30.16 1021 10 16 0.00 0.00
1:53 am 01:53 Clear 42 5.6 37 2.8 82 82 ENE 3 6 30.15 1021 10 16 0.00 0.00
2:53 am 02:53 Clear 46 7.8 37 2.8 71 71 E 7 11 30.14 1021 10 16 0.00 0.00
3:53 am 03:53 Clear 46 7.8 36 2.2 68 68 E 8 13 30.15 1021 10 16 0.00 0.00
4:53 am 04:53 Clear 44 6.7 36 2.2 73 73 NNE 5 7 30.16 1021 10 16 0.00 0.00
5:53 am 05:53 Cloudy with Light Rain 43 6.1 36 2.2 76 76 NNE 6 9 30.17 1022 10 16 0.00 0.00
6:53 am 06:53 Cloudy with Light Rain 42 5.6 38 3.3 85 85 E 6 9 30.18 1022 10 16 0.04 1.02
7:53 am 07:53 Partly Cloudy 42 5.6 38 3.3 85 85 ENE 6 9 30.16 1022 10 16 0.01 0.25
8:53 am 08:53 Mostly Cloudy 42 5.6 36 2.2 79 79 E 6 9 30.19 1022 10 16 0.00 0.00
9:53 am 09:53 Cloudy with Light Rain 41 5 36 2.2 82 82 E 10 17 30.18 1022 10 16 0.01 0.25
10:53 am 10:53 Cloudy 41 5 36 2.2 82 82 E 8 13 30.21 1023 10 16 0.00 0.00
11:09 am 11:09 Cloudy 42 5.6 37 2.8 82 82 E 8 13 30.23 1024 10 16 0.00 0.00
11:34 am 11:34 Cloudy 42 5.6 37 2.8 82 82 ENE 9 15 30.22 1023 9 14 0.00 0.00
11:53 am 11:53 Cloudy 42 5.6 37 2.8 82 82 ENE 9 15 30.19 1022 7 11 0.00 0.00
12:53 pm 12:53 Cloudy 43 6.1 38 3.3 82 82 ENE 8 13 30.18 1022 10 16 0.00 0.00
1:53 pm 13:53 Cloudy 43 6.1 38 3.3 82 82 NE 8 13 30.16 1021 10 16 0.00 0.00
2:53 pm 14:53 Cloudy 43 6.1 37 2.8 80 80 ENE 10 17 30.12 1020 10 16 0.00 0.00
3:53 pm 15:53 Cloudy 43 6.1 37 2.8 80 80 ENE 10 17 30.11 1020 10 16 0.00 0.00
4:53 pm 16:53 Cloudy 42 5.6 36 2.2 79 79 ENE 9 15 30.11 1020 10 16 0.00 0.00
5:53 pm 17:53 Cloudy 42 5.6 36 2.2 79 79 NE 8 13 30.11 1020 10 16 0.00 0.00
6:53 pm 18:53 Cloudy 41 5 36 2.2 82 82 NE 8 13 30.11 1020 10 16 0.00 0.00
7:53 pm 19:53 Cloudy 41 5 36 2.2 82 82 ENE 9 15 30.12 1020 10 16 0.00 0.00
8:53 pm 20:53 Cloudy 41 5 36 2.2 82 82 ENE 9 15 30.13 1020 10 16 0.00 0.00
9:53 pm 21:53 Cloudy 41 5 36 2.2 82 82 E 3 6 30.12 1020 10 16 0.00 0.00
10:27 pm 22:27 Cloudy 41 5 36 2.2 82 82 NNE 6 9 30.14 1021 10 16 0.00 0.00
10:45 pm 22:45 Cloudy 41 5 36 2.2 82 82 NE 5 7 30.13 1020 10 16 0.00 0.00
10:53 pm 22:53 Cloudy 41 5 36 2.2 82 82 ENE 5 7 30.11 1020 10 16 0.00 0.00
11:53 pm 23:53 Cloudy 41 5 36 2.2 82 82 E 7 11 30.09 1019 10 16 0.00 0.00

Powered by AerisWeather